Location: St. Louis
(38.6270°N, 90.1994°W)
Time: 09:39:02
(UTC-06:00)

Vanguard 2 Rocket - Pass Details

Date: 30 November 2021
Orbit: 553 x 3325 km, 32.9° (Epoch: 23 January)

Event Time Altitude Azimuth Distance (km) Brightness Sun altitude
Rises 21:52:35 0° 270° (W) 4,501 10.9 -59.8°
Reaches altitude 10° 21:55:05 10° 267° (W) 3,811 10.3 -60.3°
Enters shadow 21:56:12 15° 265° (W) 3,530 10.1 -60.5°
Maximum altitude 22:05:38 64° 189° (S) 2,503 - -62.1°
Drops below altitude 10° 22:23:19 10° 114° (ESE) 6,066 - -65.0°
Sets 22:28:32 0° 112° (ESE) 7,246 - -65.8°
